Temp
-14 -14 -13 -13 -13 -13 -12 -12 -12 -12 -12 -12 -12 -12 -12 -12 -12 -12 -12 -12 -11 -12 -13 -13 -12 -12 -12 -13 -13 -13 -13 -13
-15 -15 -14 -15 -15 -13 -12 -12 -12 -12 -11 -11 -12 -12 -12 -13 -13 -13 -12 -12 -11 -12 -13 -13 -13 -13 -13 -13 -13 -13 -13 -13
-16 -16 -15 -15 -14 -12 -12 -11 -11 -11 -11 -12 -12 -12 -12 -13 -13 -12 -12 -12 -12 -13 -13 -13 -13 -13 -13 -13 -13 -13 -13 -13
-15 -15 -15 -14 -13 -13 -12 -12 -12 -12 -11 -11 -11 -12 -12 -13 -13 -13 -13 -13 -13 -13 -13 -13 -14 -14 -13 -13 -13 -13 -13 -13
-15 -15 -14 -14 -14 -13 -13 -13 -12 -12 -12 -11 -11 -11 -12 -13 -14 -13 -12 -13 -13 -13 -13 -13 -14 -14 -13 -13 -13 -13 -13 -13
-16 -15 -15 -14 -13 -13 -13 -13 -12 -12 -12 -11 -12 -12 -12 -13 -13 -14 -13 -13 -13 -13 -13 -13 -14 -15 -14 -13 -13 -13 -13 -13
-16 -15 -14 -14 -14 -14 -13 -13 -13 -12 -12 -12 -12 -12 -13 -13 -13 -13 -13 -13 -13 -13 -13 -13 -14 -15 -14 -14 -14 -14 -13 -13
-15 -15 -15 -14 -14 -14 -13 -13 -12 -12 -12 -12 -12 -12 -13 -13 -13 -13 -11 -13 -13 -13 -13 -14 -14 -14 -14 -14 -14 -14 -13 -13
-16 -16 -15 -15 -14 -14 -13 -13 -12 -12 -12 -12 -12 -12 -13 -13 -13 -12 -13 -13 -13 -14 -14 -13 -13 -14 -14 -14 -14 -14 -14 -14
-16 -16 -16 -15 -15 -14 -14 -13 -13 -13 -12 -12 -12 -12 -12 -13 -13 -13 -13 -12 -13 -13 -14 -14 -14 -13 -14 -14 -14 -14 -14 -14
-16 -16 -16 -16 -16 -15 -15 -14 -13 -13 -12 -12 -12 -12 -12 -12 -13 -13 -13 -13 -13 -13 -14 -14 -14 -14 -15 -14 -15 -14 -14 -14
-16 -16 -16 -16 -16 -15 -15 -15 -14 -13 -13 -13 -13 -13 -12 -12 -13 -12 -13 -13 -13 -13 -14 -14 -14 -14 -15 -15 -15 -15 -14 -14
-16 -16 -17 -16 -16 -16 -16 -16 -15 -15 -14 -14 -13 -13 -13 -13 -13 -13 -13 -13 -13 -13 -14 -14 -14 -14 -15 -15 -15 -15 -14 -14
-17 -17 -17 -16 -16 -17 -17 -16 -16 -15 -15 -14 -14 -14 -13 -13 -13 -13 -13 -13 -13 -13 -14 -14 -15 -15 -15 -15 -15 -15 -14 -14
-17 -16 -17 -16 -16 -17 -16 -16 -15 -15 -15 -15 -14 -14 -14 -14 -14 -13 -13 -13 -13 -13 -14 -14 -14 -15 -16 -16 -16 -15 -15 -15
-17 -17 -17 -17 -17 -16 -16 -15 -15 -15 -15 -14 -14 -14 -14 -14 -14 -14 -14 -14 -14 -14 -14 -14 -14 -14 -16 -16 -16 -16 -15 -15
-18 -17 -17 -17 -16 -16 -16 -15 -15 -15 -15 -14 -14 -14 -13 -13 -14 -14 -14 -14 -14 -14 -13 -14 -14 -14 -15 -15 -16 -16 -15 -15
-17 -17 -17 -17 -17 -17 -16 -16 -15 -15 -14 -14 -14 -14 -14 -13 -14 -14 -14 -14 -14 -14 -13 -14 -14 -15 -15 -16 -15 -16 -15 -15
-18 -18 -17 -17 -17 -17 -16 -16 -16 -15 -15 -15 -15 -14 -15 -14 -14 -14 -15 -14 -14 -14 -15 -15 -15 -15 -16 -16 -16 -16 -16 -15
Height
5713 5717 5723 5726 5733 5738 5743 5747 5749 5753 5756 5756 5759 5762 5762 5762 5763 5765 5765 5766 5766 5768 5768 5768 5767 5765 5765 5764 5764 5763 5762 5760
5698 5706 5712 5714 5717 5724 5731 5735 5739 5741 5745 5750 5752 5754 5754 5755 5755 5757 5758 5759 5760 5762 5762 5762 5761 5760 5759 5758 5758 5757 5756 5754
5683 5686 5692 5697 5705 5713 5720 5723 5727 5735 5739 5742 5743 5745 5747 5748 5749 5750 5753 5752 5753 5755 5754 5755 5754 5753 5753 5752 5752 5751 5750 5748
5663 5665 5674 5686 5696 5704 5710 5713 5719 5725 5729 5729 5733 5735 5737 5740 5743 5744 5744 5744 5744 5745 5746 5747 5747 5747 5746 5745 5745 5744 5743 5742
5650 5660 5672 5681 5687 5696 5702 5705 5709 5715 5719 5721 5724 5726 5727 5733 5732 5733 5734 5734 5735 5737 5739 5740 5739 5739 5739 5739 5738 5737 5736 5735
5644 5654 5664 5673 5679 5685 5693 5699 5701 5705 5709 5714 5715 5717 5721 5723 5724 5724 5725 5726 5726 5728 5730 5731 5731 5731 5732 5732 5731 5730 5729 5727
5638 5648 5657 5663 5670 5677 5685 5690 5694 5696 5699 5702 5706 5708 5710 5713 5715 5714 5715 5716 5717 5719 5720 5722 5723 5723 5724 5725 5725 5724 5722 5721
5632 5640 5648 5654 5661 5668 5676 5680 5684 5687 5688 5692 5695 5699 5699 5702 5706 5708 5690 5709 5710 5711 5711 5713 5715 5715 5716 5717 5717 5717 5715 5714
5624 5630 5638 5644 5650 5658 5663 5668 5673 5677 5679 5681 5685 5688 5689 5693 5695 5697 5700 5699 5699 5700 5702 5703 5705 5707 5708 5709 5709 5709 5708 5707
5618 5625 5632 5637 5642 5647 5652 5657 5661 5665 5668 5671 5673 5677 5679 5683 5685 5686 5687 5688 5689 5690 5691 5694 5697 5698 5699 5700 5701 5701 5701 5700
5613 5619 5624 5630 5635 5639 5643 5646 5649 5653 5657 5660 5663 5666 5670 5673 5673 5674 5677 5677 5678 5679 5681 5686 5687 5688 5691 5692 5693 5694 5693 5693
5607 5613 5618 5623 5627 5630 5633 5636 5638 5641 5645 5649 5652 5655 5658 5662 5666 5664 5665 5667 5669 5670 5672 5675 5677 5679 5682 5682 5684 5686 5686 5686
5601 5607 5612 5616 5620 5622 5625 5627 5630 5633 5635 5638 5641 5643 5646 5650 5655 5655 5656 5658 5659 5660 5661 5663 5665 5668 5671 5674 5676 5677 5678 5679
5597 5602 5606 5610 5612 5615 5618 5621 5623 5624 5626 5629 5631 5632 5634 5639 5642 5644 5646 5648 5648 5650 5651 5652 5654 5658 5661 5664 5667 5669 5670 5671
5590 5594 5599 5602 5607 5609 5611 5613 5614 5615 5617 5619 5621 5622 5623 5625 5628 5632 5635 5637 5639 5639 5641 5641 5642 5645 5651 5654 5657 5660 5662 5663
5586 5589 5593 5597 5600 5602 5603 5604 5605 5606 5608 5610 5611 5612 5614 5615 5618 5621 5624 5627 5629 5630 5631 5632 5633 5635 5639 5645 5648 5651 5652 5654
5585 5589 5592 5594 5594 5594 5595 5596 5597 5598 5598 5600 5601 5603 5605 5607 5609 5611 5614 5617 5619 5621 5622 5620 5623 5628 5631 5635 5637 5641 5643 5645
5585 5587 5588 5588 5587 5588 5587 5588 5588 5588 5588 5589 5592 5593 5595 5597 5600 5602 5604 5607 5609 5610 5612 5609 5611 5615 5621 5625 5627 5631 5634 5636
5584 5585 5585 5584 5584 5583 5581 5582 5582 5581 5581 5582 5582 5584 5586 5587 5590 5593 5595 5597 5598 5600 5592 5597 5605 5609 5612 5615 5618 5621 5624 5626
Wind_Speed
70 72 60 56 47 43 41 41 41 40 39 37 35 32 34 36 34 30 30 30 32 27 25 26 26 27 26 22 21 25 26 28
66 67 59 57 51 46 42 42 41 39 38 37 36 33 34 38 37 34 30 31 32 29 27 28 29 28 28 24 23 25 26 29
64 65 63 62 55 49 44 43 42 35 33 33 36 35 35 38 38 36 27 32 33 32 29 30 30 30 31 27 24 25 26 29
76 75 71 64 56 48 44 43 41 34 32 34 34 35 38 36 32 35 33 33 36 34 34 33 30 31 32 29 27 26 27 28
64 71 67 57 51 48 44 45 41 36 35 35 33 35 38 36 35 35 36 31 37 38 35 32 31 32 32 32 29 28 28 28
63 54 50 51 49 46 43 41 41 38 37 37 37 36 37 39 39 39 35 37 38 41 36 33 33 32 32 32 31 29 29 28
57 52 51 51 52 50 45 41 43 44 41 40 36 38 38 40 39 44 36 38 42 43 41 37 36 34 34 33 32 30 29 29
45 50 50 53 50 47 44 43 43 45 44 40 40 40 42 41 34 30 31 36 39 42 44 42 38 38 36 34 33 32 29 30
43 46 47 49 48 42 42 46 47 44 44 45 43 43 42 39 37 36 41 42 43 39 42 44 39 39 37 36 34 32 30 29
46 46 47 44 42 41 41 42 43 43 46 47 45 43 43 40 40 42 43 42 42 42 42 42 38 40 38 38 35 32 29 30
38 34 38 41 42 40 41 45 47 47 47 48 47 44 43 42 42 42 41 44 45 46 43 40 38 41 38 39 36 33 29 30
34 36 37 35 35 35 38 42 45 46 47 48 48 48 47 44 40 44 45 46 46 47 44 40 39 41 40 40 37 34 30 30
37 34 34 33 32 35 40 39 42 44 44 45 45 46 46 42 39 45 46 46 45 48 46 42 42 42 40 41 38 36 31 31
42 38 39 42 41 38 32 37 40 41 44 48 49 52 53 49 45 45 44 41 43 46 47 46 45 45 42 41 41 37 34 32
35 41 35 28 34 39 37 36 39 41 42 42 43 43 42 43 40 39 38 40 40 42 45 49 51 46 43 44 41 39 35 34
26 22 22 24 27 29 31 32 34 39 40 39 41 43 43 41 39 37 36 37 38 37 36 42 53 52 39 45 42 42 38 37
6 12 19 22 21 22 25 27 30 34 37 37 37 39 41 41 41 41 38 36 36 35 36 43 39 42 40 47 46 44 41 40
6 9 11 12 13 15 16 19 23 28 31 34 34 36 37 39 42 42 40 37 37 39 38 42 33 29 43 48 49 45 42 42
6 8 10 11 13 15 16 17 19 24 26 31 31 34 34 35 35 37 39 37 37 41 41 38 44 40 45 48 49 48 48 43
Wind_Direction
237 243 249 252 250 248 241 238 241 247 249 252 258 258 261 260 257 260 262 268 274 275 276 278 282 288 288 288 287 290 289 288
233 241 240 245 246 243 239 239 237 242 247 249 254 253 250 254 256 249 258 267 273 272 272 276 278 284 286 282 283 286 287 287
221 225 231 239 238 237 241 244 244 246 252 254 253 251 248 246 252 260 263 267 271 270 270 272 275 281 284 281 279 282 285 285
223 222 227 237 238 238 239 248 251 246 251 256 256 254 249 248 245 255 248 254 263 264 266 270 274 278 280 279 278 280 283 285
237 232 232 234 237 237 236 244 249 247 247 251 256 254 247 240 238 239 252 256 260 266 267 270 270 271 275 277 277 278 280 283
233 234 229 230 230 232 235 242 249 247 243 246 249 252 256 249 247 243 252 256 259 261 262 266 267 266 270 273 275 276 280 283
230 233 231 234 233 233 234 238 243 247 245 246 244 247 250 250 250 242 246 254 259 263 261 258 261 263 264 268 270 271 276 281
232 230 232 235 236 236 234 233 235 240 244 244 245 246 248 252 259 269 229 256 260 265 262 259 257 260 262 264 266 269 274 279
226 226 228 233 235 236 238 238 238 237 241 245 245 248 247 247 247 248 243 249 254 257 260 261 259 260 258 260 262 265 270 277
230 227 229 235 238 233 232 234 236 239 240 245 248 249 252 250 249 252 252 254 258 258 259 259 259 259 255 255 258 262 267 273
216 225 232 234 239 244 242 236 235 239 243 248 249 250 250 249 250 253 254 254 255 257 258 259 256 255 251 252 255 259 265 269
218 228 237 242 241 241 244 243 242 243 244 246 249 251 250 245 245 253 253 256 258 261 258 256 252 251 245 249 252 256 260 264
220 226 230 232 240 251 251 253 254 251 251 248 248 249 249 249 251 252 254 254 255 259 259 254 250 251 244 246 251 255 257 260
227 236 237 241 248 256 246 252 255 255 253 251 250 252 253 253 257 255 256 257 258 258 256 251 246 247 242 244 248 252 253 255
228 234 236 246 252 249 254 256 254 250 249 249 251 252 253 255 256 256 255 256 256 259 258 254 248 237 235 242 246 251 250 252
229 227 234 250 254 254 251 249 248 252 244 251 250 250 252 252 254 251 250 248 254 258 261 264 255 245 231 241 244 248 247 248
243 246 244 249 256 258 256 258 256 250 248 247 249 250 249 249 250 249 248 249 249 253 260 249 261 241 231 240 242 247 249 249
247 255 258 265 275 276 271 264 258 254 251 251 251 248 247 246 245 248 246 245 247 245 245 251 235 253 234 236 243 248 252 252
261 267 258 262 273 284 287 284 263 252 255 248 250 247 244 244 246 243 245 246 250 256 242 259 257 253 245 244 245 248 249 250